Location: Campillo
(40.8621°N, 4.2488°W)
Time: 11:56:19
(UTC+00:00)

ATLAS 5 CENTAUR R/B - Pass Details

Date: 02 October 2021
Orbit: 509 x 1148 km, 63.4° (Epoch: 11 October)

Event Time Altitude Azimuth Distance (km) Brightness Sun altitude
Rises 04:48:58 0° 338° (NNW) 3,115 5.0 -17.0°
Reaches altitude 10° 04:53:25 10° 15° (NNE) 2,374 4.8 -16.1°
Maximum altitude 04:54:49 11° 30° (NNE) 2,367 5.1 -15.9°
Drops below altitude 10° 04:56:15 10° 45° (NE) 2,486 5.4 -15.6°
Sets 05:01:23 0° 80° (E) 3,620 7.5 -14.6°
